Temperature
17 17 16 16 16 16 16 16 15 15 15 15 15 15 15 15 15 15 15 15 14 14 14 14 14 14 14 14 14 14 14 13 13 13 12 12 12 12 12 12 12 12 12
17 17 16 16 16 16 16 16 16 15 15 15 15 15 15 15 15 15 14 14 14 14 14 14 14 14 14 13 13 13 13 13 13 13 12 12 12 12 12 12 12 12 11
17 17 16 16 16 16 16 16 16 16 15 15 15 15 15 15 15 14 14 14 14 14 14 14 14 13 13 13 13 13 13 13 13 13 12 12 12 12 12 11 11 11 11
17 17 17 17 16 16 16 16 16 16 15 15 15 15 15 15 15 14 14 14 14 14 14 13 13 13 13 13 13 13 13 13 12 12 12 12 12 11 11 11 11 11 11
17 17 17 17 16 16 16 16 16 15 15 15 15 15 15 15 14 14 14 14 14 14 14 13 13 13 13 13 13 13 13 13 12 12 12 12 11 11 11 11 10 10 10
17 17 17 17 16 16 16 16 16 15 15 15 15 15 15 15 14 14 14 14 14 14 14 13 13 13 13 13 13 13 12 12 12 12 12 11 11 11 10 10 10 10 10
17 17 17 17 16 16 16 16 16 15 15 15 15 15 15 14 14 14 14 14 14 14 13 13 13 13 13 13 12 12 12 12 12 11 11 11 11 11 10 10 10 10 9
17 17 17 17 16 16 16 16 16 15 15 15 15 15 15 14 14 14 14 14 14 13 13 13 13 13 13 12 12 12 12 12 11 11 11 11 11 10 10 10 10 9 9
17 17 17 17 16 16 16 16 16 15 15 15 15 15 15 14 14 14 14 14 14 13 13 13 13 13 12 12 12 12 12 12 11 11 11 11 10 10 10 10 9 9 9
17 17 17 17 16 16 16 16 16 15 15 15 15 15 14 14 14 14 14 14 14 13 13 13 13 12 12 12 12 12 12 11 11 11 11 10 10 10 10 9 9 9 8
17 17 17 17 17 16 16 16 16 15 15 15 15 15 14 14 14 14 14 13 13 13 13 13 12 12 12 12 12 11 11 11 11 10 10 10 10 10 9 9 9 8 8
17 17 17 17 16 16 16 16 16 15 15 15 15 14 14 14 14 14 14 13 13 13 13 12 12 12 12 11 11 11 11 11 10 10 10 10 10 9 9 9 8 8 7
17 17 17 16 16 16 16 16 15 15 15 15 15 14 14 14 14 14 13 13 13 13 12 12 12 11 11 11 11 11 10 10 10 10 10 10 9 9 8 8 8 7 7
17 17 16 16 16 16 16 16 15 15 15 15 14 14 14 14 14 14 13 13 13 13 12 12 11 11 11 11 10 10 10 10 10 9 9 9 9 8 8 8 7 7 7
17 16 16 16 16 16 16 16 15 15 15 15 14 14 14 14 14 14 13 13 13 12 12 12 11 11 11 10 10 10 10 9 9 9 9 9 8 8 8 7 7 7 6
16 16 16 16 16 15 15 15 15 15 14 14 14 14 14 13 13 13 13 12 12 12 12 11 11 11 11 10 10 9 9 9 9 8 8 8 8 7 7 7 6 6 6
16 16 16 15 15 15 15 15 15 14 14 14 14 13 13 13 13 13 12 12 12 12 11 11 11 11 10 10 9 9 9 8 8 8 8 8 7 7 6 6 6 5 5
16 16 15 15 15 15 15 14 14 14 14 14 13 13 13 13 12 12 12 12 11 11 11 11 11 10 10 10 9 9 8 8 8 7 7 7 7 6 6 5 5 5 4
15 15 15 15 15 14 14 14 14 14 13 13 13 13 12 12 12 12 11 11 11 11 11 11 10 10 10 9 9 8 8 8 7 7 7 6 6 6 5 5 4 4 4
15 14 14 14 14 14 14 14 13 13 13 13 12 12 12 11 11 11 11 11 11 11 10 10 10 9 9 9 8 8 8 7 7 6 6 6 5 5 5 4 4 4 3
14 14 14 14 14 14 13 13 13 13 12 12 12 12 11 11 11 11 11 11 10 10 10 10 9 9 9 8 8 8 7 7 6 6 6 5 5 5 4 4 4 3 3
14 14 13 13 13 13 13 13 12 12 12 12 12 11 11 11 11 11 10 10 10 10 9 9 9 9 8 8 8 7 7 6 6 5 5 5 5 4 4 4 3 3 3
13 13 13 13 12 12 12 12 12 11 11 11 11 11 11 10 10 10 10 10 9 9 9 8 8 8 8 7 7 7 6 6 5 5 5 4 4 4 3 3 3 3 2
13 12 12 12 12 12 11 11 11 11 11 11 11 10 10 10 10 9 9 9 9 8 8 8 8 8 7 7 6 6 6 5 5 4 4 4 4 3 3 3 2 2 2
12 12 12 11 11 11 11 11 10 10 10 10 10 10 10 9 9 9 9 8 8 8 8 8 7 7 7 6 6 5 5 5 4 4 4 3 3 3 3 2 2 2 1
11 11 11 11 11 11 10 10 10 10 10 9 9 9 9 9 8 8 8 8 8 7 7 7 7 6 6 6 5 5 4 4 4 3 3 3 3 2 2 2 1 1 1
Wind_Speed
7 6 6 6 5 5 5 5 4 3 4 4 3 3 3 2 2 3 2 3 3 3 3 3 2 2 2 2 2 3 3 3 3 1 1 1 1 1 3 3 4 4 5
8 7 7 6 6 5 5 5 5 4 4 4 3 3 3 3 2 3 2 3 3 3 2 3 2 2 3 2 2 3 2 2 4 2 1 1 1 1 1 2 3 4 4
8 8 7 6 6 6 6 5 5 5 4 3 4 4 3 3 3 3 3 3 3 2 2 3 2 3 2 2 2 2 2 2 3 3 0 1 1 1 1 2 3 3 4
8 8 8 7 7 7 6 5 5 5 5 4 4 4 3 3 3 3 3 3 2 2 2 2 2 3 3 2 2 2 2 2 2 2 1 1 1 1 1 1 2 3 3
8 8 8 7 6 6 6 6 5 5 5 5 4 3 3 3 4 4 4 4 3 2 1 1 2 3 3 3 3 3 3 2 2 2 1 1 1 1 1 1 1 2 3
9 9 7 7 7 7 7 6 5 5 4 4 4 4 4 3 5 7 6 4 3 3 2 1 0 1 2 3 3 4 5 4 3 2 1 1 2 2 1 1 0 1 3
8 8 8 8 7 7 7 7 6 6 5 4 4 5 4 5 6 7 8 5 4 3 3 2 1 1 2 1 2 3 2 2 4 4 3 3 3 3 2 1 1 2 3
8 8 8 8 8 7 7 7 6 5 5 5 5 5 5 5 7 7 7 5 3 3 3 3 2 1 1 3 2 2 1 1 1 2 3 4 4 3 4 3 3 2 2
8 8 9 9 9 8 7 7 6 5 5 5 5 6 5 5 7 7 7 4 3 2 2 3 3 2 3 4 4 2 0 2 2 0 1 2 2 2 2 2 1 1 2
9 9 9 9 9 9 8 7 5 5 6 5 5 5 6 6 7 8 8 4 3 2 1 2 3 3 4 5 4 4 2 2 1 2 3 3 3 3 1 2 3 2 1
7 7 7 8 9 8 7 6 5 6 5 5 4 4 5 6 7 8 8 5 5 3 2 2 2 3 4 4 4 4 4 2 1 0 1 2 2 3 3 1 2 3 3
6 7 7 7 8 7 7 6 6 6 6 5 4 3 2 4 6 7 8 8 7 5 4 3 3 4 3 3 3 4 3 3 2 1 1 1 2 2 2 2 1 1 2
6 7 7 7 6 7 8 7 5 6 5 5 5 4 3 2 4 7 8 9 9 5 4 5 4 3 2 1 2 3 3 2 2 1 1 2 2 2 2 2 2 2 2
8 7 6 7 6 6 6 6 6 6 6 6 6 5 4 3 3 3 4 4 6 4 3 3 3 3 2 1 1 1 1 2 2 2 2 2 1 1 1 1 1 1 1
7 6 6 6 6 6 5 5 6 6 7 8 7 7 6 6 7 9 7 5 5 5 5 2 2 1 1 0 0 0 0 1 1 1 1 1 1 1 2 1 1 0 0
6 6 5 5 4 5 4 2 1 3 6 8 8 8 6 7 8 10 10 10 10 10 6 3 3 3 3 3 3 1 1 1 2 1 1 1 1 1 1 1 1 0 1
7 7 6 5 5 5 5 5 3 0 0 3 5 8 8 8 9 10 10 9 10 11 5 4 4 4 4 3 3 3 2 2 2 2 2 2 1 1 1 1 1 1 1
6 7 7 6 6 5 6 5 5 5 3 1 1 4 6 7 8 8 9 7 5 5 4 5 5 4 4 4 4 3 3 2 2 2 2 2 1 1 1 1 1 1 2
5 5 5 5 5 5 5 5 5 5 4 3 1 1 3 4 5 6 8 4 5 5 4 4 4 4 4 4 4 4 3 3 3 2 2 2 2 1 1 2 2 2 2
4 6 6 5 5 4 4 5 5 5 5 4 4 3 3 2 2 3 3 3 4 4 4 5 4 4 4 4 4 3 3 3 3 2 2 2 2 2 2 2 2 2 3
4 4 6 5 5 5 5 5 6 5 5 5 5 5 7 5 5 5 5 4 5 5 5 4 4 4 4 4 4 4 4 3 3 3 3 2 2 2 2 2 2 2 3
4 4 4 4 4 4 4 5 5 5 5 5 3 4 7 4 4 4 4 4 4 4 4 4 4 4 5 5 5 5 4 4 4 3 3 2 2 2 2 2 2 2 3
4 4 3 3 3 4 4 4 4 5 5 5 4 4 4 4 5 5 5 4 3 3 4 4 4 4 4 5 6 6 5 5 5 5 4 3 2 2 2 3 3 3 3
4 4 4 3 3 4 4 5 5 5 5 4 4 4 5 5 4 4 4 3 4 4 4 5 5 5 6 5 5 5 6 6 6 5 5 4 3 3 2 3 3 3 3
3 3 3 3 4 4 4 4 5 5 4 4 4 4 4 4 4 4 3 3 4 4 4 4 4 5 5 6 5 5 6 7 6 5 5 4 4 3 3 3 3 3 3
3 3 3 3 3 4 4 5 5 5 4 4 4 4 4 4 4 4 4 4 4 4 4 4 5 5 5 5 6 6 6 6 6 5 4 3 3 3 2 2 3 3 4
Wind_Direction
174 170 164 167 164 155 155 162 162 153 146 145 146 140 139 131 116 106 100 94 91 74 76 94 81 74 74 71 79 87 97 119 132 307 338 6 37 35 14 14 16 16 11
175 169 171 169 162 161 166 167 162 157 153 148 145 141 149 152 146 131 122 104 110 108 99 96 81 88 77 69 81 90 98 116 134 139 331 344 313 281 333 359 8 11 7
172 169 170 173 171 174 178 174 166 161 159 153 143 150 161 165 159 154 141 126 128 131 132 126 120 109 94 85 91 99 99 97 113 134 192 320 326 335 3 1 10 1 5
172 172 175 182 181 180 178 175 174 168 165 167 163 169 171 165 159 152 141 133 125 122 136 141 139 142 154 142 122 129 122 97 91 102 68 347 333 337 37 10 351 346 342
174 179 187 186 179 175 175 176 174 172 176 172 164 173 171 166 172 165 154 147 139 126 100 126 151 153 158 154 145 156 139 124 112 103 71 2 335 346 309 287 318 324 325
177 186 185 180 176 176 178 175 168 173 174 166 168 176 183 188 172 170 158 152 153 147 142 126 104 116 127 135 136 150 154 153 161 154 185 229 267 258 256 243 256 359 319
180 182 179 179 179 181 178 171 173 178 178 178 180 177 188 196 175 165 161 152 154 165 175 177 142 107 107 111 100 91 109 134 159 165 183 223 234 230 207 235 224 220 248
183 186 183 180 181 177 171 176 180 177 178 183 188 186 185 198 185 174 163 152 155 173 182 177 177 225 178 151 132 99 15 311 205 166 196 224 225 219 198 203 211 229 281
187 190 187 182 180 178 180 183 181 175 181 187 183 181 185 203 195 185 167 152 163 203 209 184 183 208 202 163 140 150 292 318 3 271 244 258 273 262 192 129 89 65 312
196 194 189 184 181 184 188 186 180 176 184 182 185 191 191 202 201 192 170 156 169 206 241 220 204 204 206 175 162 167 198 261 308 16 16 10 14 9 16 160 183 184 228
190 184 184 184 185 184 182 179 172 171 170 175 183 198 200 204 200 195 179 169 180 187 209 235 235 208 191 182 172 180 197 191 160 97 6 354 2 5 360 12 161 175 193
176 176 182 184 186 182 173 177 174 168 169 178 181 201 220 209 194 193 186 183 176 179 205 219 216 198 183 179 172 175 170 136 113 85 42 339 325 317 318 343 1 184 207
169 180 185 185 187 177 176 179 177 176 178 188 187 200 217 215 207 200 194 188 183 185 198 197 189 181 166 153 163 164 146 137 132 136 239 269 272 282 329 360 8 24 15
173 179 182 181 185 182 181 181 182 188 190 194 197 203 209 209 210 200 187 179 177 174 170 149 130 119 117 116 91 109 147 161 166 197 237 268 299 330 335 333 319 326 354
173 175 176 179 179 179 182 188 192 201 197 196 202 198 196 213 219 196 182 184 183 177 146 114 104 107 118 128 322 264 166 149 184 214 221 258 294 315 316 324 320 345 308
171 174 176 175 175 173 168 157 171 203 214 207 202 196 205 207 200 193 192 189 180 164 143 157 181 188 198 206 202 207 206 208 214 207 210 219 240 267 304 331 344 320 284
179 180 177 175 175 176 174 173 177 349 131 189 199 197 196 194 192 190 184 179 175 161 158 182 193 201 206 206 203 202 212 223 209 195 202 214 216 243 284 314 323 314 289
179 180 177 180 181 184 185 184 181 180 190 227 243 200 195 192 189 184 169 149 159 171 184 192 202 205 203 203 204 205 207 205 199 201 204 211 210 220 252 277 278 255 268
175 180 178 176 179 182 181 177 180 185 186 181 163 203 183 166 162 169 161 167 181 194 201 203 205 204 205 203 203 201 195 196 199 199 207 211 211 203 236 258 270 270 264
178 178 172 171 173 176 179 181 185 187 185 186 195 197 173 148 173 186 189 187 187 196 200 204 206 203 199 197 195 194 193 194 195 200 207 211 212 208 224 249 259 264 260
173 175 171 169 182 187 188 191 191 190 193 199 208 202 184 185 193 195 198 198 199 200 198 198 199 199 199 195 191 193 196 202 204 204 207 211 213 222 229 235 248 255 265
171 174 179 183 189 193 198 195 190 190 194 198 200 192 186 183 189 198 205 210 211 207 200 192 198 202 200 195 190 189 193 202 207 205 206 212 217 223 228 238 250 259 265
171 173 178 186 188 191 194 192 191 193 196 196 189 182 187 196 199 203 208 207 201 201 191 188 194 198 190 185 183 185 193 204 205 199 197 206 216 221 225 238 250 262 264
171 177 183 191 187 190 198 199 197 197 195 191 189 189 193 198 201 203 203 196 192 195 187 184 187 194 192 186 186 189 195 195 188 187 189 195 207 217 224 237 249 252 258
175 182 188 194 198 201 204 199 196 196 196 194 195 197 196 195 196 198 193 188 184 188 189 184 180 181 185 184 181 182 187 184 180 176 178 188 202 213 225 240 251 262 268
181 188 195 195 202 204 202 197 197 198 201 203 202 200 196 195 191 188 181 181 183 185 183 175 173 175 180 179 177 176 179 183 187 190 179 182 195 214 228 245 258 264 270
Height
1542 1544 1545 1547 1548 1549 1550 1551 1552 1553 1553 1554 1555 1555 1555 1556 1556 1557 1557 1557 1557 1557 1557 1557 1557 1557 1556 1556 1556 1556 1556 1556 1556 1556 1556 1556 1555 1554 1553 1552 1551 1549 1548
1541 1543 1544 1546 1547 1548 1549 1550 1551 1552 1553 1554 1554 1555 1555 1556 1556 1557 1557 1557 1557 1557 1557 1557 1557 1557 1556 1556 1556 1556 1556 1556 1556 1555 1555 1555 1554 1554 1553 1551 1550 1549 1547
1539 1541 1543 1544 1545 1547 1548 1549 1550 1551 1552 1553 1554 1554 1555 1556 1556 1557 1557 1557 1557 1557 1557 1557 1557 1556 1556 1556 1556 1556 1556 1556 1555 1555 1554 1554 1553 1553 1552 1550 1549 1548 1546
1537 1539 1540 1542 1544 1545 1546 1548 1549 1550 1551 1552 1553 1554 1554 1555 1556 1556 1556 1556 1557 1557 1557 1557 1557 1556 1556 1556 1556 1556 1555 1555 1555 1554 1553 1553 1552 1551 1550 1549 1547 1546 1545
1534 1536 1538 1540 1542 1544 1545 1546 1548 1549 1550 1551 1552 1553 1554 1554 1555 1555 1556 1556 1556 1556 1556 1556 1556 1556 1556 1555 1555 1555 1555 1554 1553 1553 1552 1551 1551 1550 1549 1547 1546 1545 1543
1532 1534 1536 1538 1540 1541 1543 1545 1546 1547 1549 1550 1551 1552 1553 1553 1554 1555 1555 1555 1555 1556 1556 1555 1555 1555 1555 1555 1554 1554 1554 1553 1552 1551 1551 1550 1549 1548 1547 1546 1544 1542 1541
1529 1531 1533 1536 1537 1539 1541 1543 1544 1546 1547 1548 1549 1550 1551 1552 1553 1553 1554 1554 1554 1555 1555 1554 1554 1554 1554 1553 1553 1553 1552 1552 1551 1551 1549 1548 1547 1546 1545 1544 1542 1541 1539
1527 1529 1531 1533 1535 1537 1539 1540 1542 1544 1545 1546 1548 1549 1550 1551 1551 1552 1553 1553 1553 1553 1553 1553 1553 1552 1552 1552 1551 1551 1551 1550 1549 1548 1548 1546 1546 1544 1543 1542 1540 1539 1537
1525 1527 1529 1531 1532 1534 1536 1538 1539 1541 1543 1544 1545 1547 1548 1549 1550 1550 1551 1551 1551 1551 1551 1551 1551 1550 1550 1550 1550 1549 1548 1548 1547 1546 1546 1544 1543 1542 1541 1539 1538 1536 1534
1522 1524 1526 1528 1530 1532 1533 1535 1537 1538 1540 1542 1543 1544 1545 1546 1548 1548 1549 1549 1549 1549 1549 1549 1549 1548 1548 1548 1547 1547 1546 1546 1545 1544 1543 1542 1541 1540 1538 1537 1535 1533 1531
1519 1521 1523 1525 1527 1529 1531 1533 1534 1536 1537 1538 1540 1541 1543 1544 1545 1546 1546 1546 1546 1546 1546 1546 1546 1546 1545 1545 1545 1544 1544 1543 1542 1541 1540 1539 1538 1537 1535 1534 1532 1531 1529
1517 1519 1520 1523 1525 1527 1528 1530 1531 1533 1534 1535 1537 1538 1539 1540 1541 1542 1543 1543 1544 1544 1543 1543 1543 1543 1543 1542 1542 1541 1541 1540 1539 1538 1537 1536 1535 1533 1532 1531 1529 1527 1526
1514 1516 1518 1520 1522 1523 1525 1527 1528 1530 1531 1532 1533 1534 1535 1537 1538 1539 1539 1540 1540 1540 1540 1540 1540 1540 1540 1539 1539 1539 1538 1537 1536 1535 1534 1532 1531 1530 1529 1527 1526 1524 1522
1511 1513 1514 1516 1518 1520 1522 1523 1525 1526 1527 1528 1529 1530 1532 1533 1534 1535 1535 1536 1536 1536 1536 1536 1537 1536 1536 1536 1536 1535 1535 1534 1533 1532 1530 1529 1528 1527 1525 1524 1522 1520 1518
1508 1509 1511 1513 1514 1516 1518 1519 1521 1522 1524 1525 1526 1527 1528 1529 1530 1531 1532 1532 1532 1532 1533 1533 1533 1533 1532 1532 1532 1532 1531 1531 1529 1528 1527 1526 1524 1523 1521 1520 1518 1516 1514
1504 1506 1508 1509 1511 1512 1514 1516 1517 1519 1520 1522 1523 1523 1524 1525 1526 1527 1527 1528 1528 1529 1529 1528 1529 1529 1529 1528 1528 1528 1527 1527 1526 1525 1524 1522 1521 1519 1518 1516 1514 1512 1510
1501 1502 1504 1506 1507 1508 1510 1511 1513 1514 1516 1517 1518 1519 1520 1521 1522 1522 1523 1524 1524 1525 1525 1524 1525 1525 1525 1525 1524 1524 1523 1523 1522 1521 1520 1519 1517 1516 1514 1512 1511 1509 1507
1498 1499 1501 1502 1504 1505 1506 1508 1509 1510 1511 1512 1513 1515 1515 1516 1517 1518 1519 1520 1519 1520 1520 1521 1521 1521 1521 1521 1520 1520 1519 1519 1518 1517 1516 1515 1513 1512 1510 1508 1507 1505 1503
1494 1496 1497 1499 1500 1501 1502 1504 1505 1506 1507 1508 1509 1510 1511 1512 1513 1514 1514 1514 1515 1515 1516 1516 1517 1517 1517 1516 1516 1515 1515 1514 1514 1513 1512 1510 1509 1508 1506 1504 1503 1501 1500
1491 1492 1494 1495 1496 1497 1498 1499 1500 1501 1502 1503 1504 1505 1506 1507 1507 1508 1509 1510 1510 1511 1511 1512 1512 1512 1512 1512 1512 1511 1510 1510 1509 1508 1507 1506 1505 1504 1502 1501 1499 1497 1495
1487 1489 1490 1491 1492 1493 1494 1495 1496 1497 1497 1498 1499 1501 1502 1502 1503 1504 1504 1505 1506 1506 1507 1507 1508 1508 1508 1508 1507 1507 1506 1505 1505 1504 1503 1502 1501 1499 1498 1496 1495 1493 1491
1484 1485 1486 1487 1488 1489 1490 1490 1491 1492 1493 1494 1495 1496 1497 1498 1499 1499 1500 1501 1502 1502 1503 1503 1503 1503 1503 1503 1503 1502 1501 1501 1500 1499 1498 1497 1496 1495 1493 1492 1490 1488 1487
1480 1481 1482 1483 1484 1484 1485 1486 1487 1488 1488 1489 1490 1491 1492 1493 1494 1495 1496 1497 1497 1498 1498 1498 1498 1498 1498 1498 1497 1497 1496 1496 1495 1494 1493 1492 1491 1490 1489 1487 1486 1484 1482
1476 1477 1478 1479 1480 1480 1481 1482 1483 1483 1484 1485 1486 1487 1488 1488 1489 1490 1491 1492 1493 1493 1493 1493 1493 1493 1493 1493 1492 1492 1491 1491 1490 1490 1489 1488 1487 1485 1484 1483 1481 1479 1477
1472 1473 1474 1475 1476 1476 1477 1477 1478 1479 1480 1480 1481 1482 1483 1484 1485 1485 1486 1487 1488 1488 1488 1488 1488 1488 1488 1487 1487 1487 1486 1486 1485 1485 1484 1483 1482 1480 1479 1478 1476 1474 1473
1468 1469 1470 1471 1471 1472 1472 1473 1474 1475 1475 1476 1477 1477 1478 1479 1480 1480 1481 1482 1482 1483 1483 1483 1483 1483 1483 1482 1482 1482 1481 1481 1480 1479 1478 1477 1476 1475 1474 1472 1471 1470 1468